KF7ROW Weather Reports


time (UTC)temp
C
wind
direction
speed
KPH
gust
KPH
rain 1hr
cm
rain 24hr
cm
rain mn
cm
humidity
%
barometer
mb
20260505140531 12 219 0.0 0.0 0.00 0.00 0.00 95 1019.9
20260505124944 11 210 0.0 0.0 0.00 0.00 0.00 94 1019.4
20260505124441 11 213 0.0 1.6 0.00 0.00 0.00 94 1019.3
20260505123937 11 213 0.0 0.0 0.00 0.00 0.00 94 1019.4
20260505123433 12 215 0.0 1.6 0.00 0.00 0.00 94 1019.3
20260505122929 12 217 0.0 0.0 0.00 0.00 0.00 94 1019.4
20260505122427 12 214 0.0 0.0 0.00 0.00 0.00 94 1019.5
20260505121924 12 210 0.0 0.0 0.00 0.00 0.00 94 1019.3
20260505121421 12 216 0.0 4.8 0.00 0.00 0.00 94 1019.4
20260505120916 12 226 1.6 4.8 0.00 0.00 0.00 93 1019.3
20260505120413 12 224 0.0 1.6 0.00 0.00 0.00 93 1019.4
20260505115912 12 238 0.0 3.2 0.00 0.00 0.00 93 1019.4
20260505115409 12 219 0.0 3.2 0.00 0.00 0.00 93 1019.2
20260505114907 12 226 0.0 3.2 0.00 0.00 0.00 94 1019.4
20260505114403 12 215 0.0 0.0 0.00 0.00 0.00 94 1019.3
20260505113859 12 214 0.0 0.0 0.00 0.00 0.00 94 1019.2
20260505113356 12 219 0.0 1.6 0.00 0.00 0.00 94 1019.2
20260505112852 12 216 1.6 3.2 0.00 0.00 0.00 94 1019.2
20260505112350 12 218 3.2 3.2 0.00 0.00 0.00 95 1019.4
20260505111845 12 218 0.0 1.6 0.00 0.00 0.00 95 1019.2
20260505111340 12 212 0.0 1.6 0.00 0.00 0.00 95 1019.2
20260505110837 11 241 1.6 3.2 0.00 0.00 0.00 95 1019.3
20260505110334 12 219 4.8 4.8 0.00 0.00 0.00 96 1019.1
20260505101809 12 212 0.0 0.0 0.00 0.00 0.00 96 1019.1
20260505101305 12 214 0.0 0.0 0.00 0.00 0.00 96 1019.1
20260505100801 12 215 0.0 0.0 0.00 0.00 0.00 96 1019.2
20260505100258 12 220 0.0 0.0 0.00 0.00 0.00 96 1019.2
20260505095753 12 254 3.2 3.2 0.00 0.00 0.00 96 1019.1
20260505095251 12 247 3.2 3.2 0.00 0.00 0.00 96 1019.0
20260505094746 12 208 0.0 0.0 0.00 0.00 0.00 96 1019.2
20260505094244 12 210 0.0 0.0 0.00 0.00 0.00 96 1019.1
20260505093739 12 207 0.0 0.0 0.00 0.00 0.00 96 1019.0
20260505093237 12 207 0.0 0.0 0.00 0.00 0.00 96 1019.0
20260505092734 12 208 0.0 0.0 0.00 0.00 0.00 96 1018.9
20260505092233 12 208 0.0 0.0 0.00 0.00 0.00 96 1018.9
20260505091729 12 208 0.0 0.0 0.00 0.00 0.00 95 1019.0
20260505091228 12 205 0.0 0.0 0.00 0.00 0.00 95 1019.0
20260505090725 12 201 0.0 0.0 0.00 0.00 0.00 95 1018.8
20260505090223 12 199 0.0 1.6 0.00 0.00 0.00 95 1018.9
20260505085720 12 221 0.0 0.0 0.00 0.00 0.00 95 1018.9
20260505085218 12 236 1.6 1.6 0.00 0.00 0.00 95 1018.9
20260505084715 12 214 0.0 3.2 0.00 0.00 0.00 95 1018.9
20260505084214 12 224 0.0 1.6 0.00 0.00 0.00 95 1018.9
20260505083710 12 220 1.6 3.2 0.00 0.00 0.00 95 1018.8
20260505083208 12 213 3.2 3.2 0.00 0.00 0.00 95 1018.8
20260505082703 12 239 1.6 3.2 0.00 0.00 0.00 95 1018.8
20260505082201 12 261 1.6 3.2 0.00 0.00 0.00 95 1018.7
20260505081656 12 237 3.2 3.2 0.00 0.00 0.00 94 1018.8
20260505081154 12 230 1.6 3.2 0.00 0.00 0.00 94 1018.9
20260505080651 12 229 1.6 3.2 0.00 0.00 0.00 94 1018.9
20260505080147 12 237 1.6 4.8 0.00 0.00 0.00 94 1018.8
20260505075643 12 231 3.2 3.2 0.00 0.00 0.00 94 1018.9
20260505075140 12 218 1.6 4.8 0.00 0.00 0.00 94 1018.8
20260505074637 12 210 0.0 1.6 0.00 0.00 0.00 94 1018.7
20260505074134 12 227 1.6 3.2 0.00 0.00 0.00 94 1018.9
20260505073631 12 218 0.0 0.0 0.00 0.00 0.00 94 1018.9
20260505073129 12 205 0.0 0.0 0.00 0.00 0.00 93 1018.9
20260505072624 12 218 1.6 3.2 0.00 0.00 0.00 93 1018.9
20260505072122 12 231 1.6 4.8 0.00 0.00 0.00 93 1018.7
20260505071617 12 221 0.0 4.8 0.00 0.00 0.00 93 1018.8
20260505071115 12 218 0.0 4.8 0.00 0.00 0.00 93 1018.8
20260505070612 12 199 0.0 1.6 0.00 0.00 0.00 92 1019.1
20260505070108 12 257 3.2 4.8 0.00 0.00 0.00 92 1019.0
20260505065604 12 223 3.2 3.2 0.00 0.00 0.00 92 1018.9
20260505065101 12 221 1.6 3.2 0.00 0.00 0.00 92 1019.0
20260505064558 12 202 3.2 3.2 0.00 0.00 0.00 91 1018.9
20260505064057 12 154 3.2 4.8 0.00 0.00 0.00 92 1019.1
20260505063553 12 205 0.0 4.8 0.00 0.00 0.00 92 1018.9
20260505063049 12 217 0.0 3.2 0.00 0.00 0.00 92 1019.0
20260505062546 12 221 1.6 3.2 0.00 0.00 0.00 92 1019.0
20260505062043 12 201 0.0 3.2 0.00 0.00 0.00 92 1018.9
20260505061540 12 224 4.8 8.0 0.00 0.00 0.00 91 1019.0
20260505061038 12 217 1.6 8.0 0.00 0.00 0.00 91 1019.0
20260505060536 12 259 3.2 4.8 0.00 0.00 0.00 91 1019.2
20260505060032 12 217 0.0 3.2 0.00 0.00 0.00 91 1019.1
20260505055527 12 220 0.0 1.6 0.00 0.00 0.00 91 1018.9
20260505055024 12 246 3.2 3.2 0.00 0.00 0.00 90 1018.8
20260505054522 12 226 0.0 3.2 0.00 0.00 0.00 90 1018.9
20260505054020 12 223 4.8 8.0 0.00 0.00 0.00 90 1019.0
20260505053517 12 206 4.8 8.0 0.00 0.00 0.00 90 1019.0
20260505053013 12 222 1.6 4.8 0.00 0.00 0.00 90 1019.0
20260505052510 12 238 3.2 9.7 0.00 0.00 0.00 90 1019.1
20260505052008 12 254 9.7 14.5 0.00 0.00 0.00 90 1019.1
20260505051504 12 234 1.6 8.0 0.00 0.00 0.00 89 1019.0
20260505051003 12 251 6.4 11.3 0.00 0.00 0.00 89 1019.1
20260505050500 12 250 8.0 11.3 0.00 0.00 0.00 89 1018.9
20260505041428 12 250 8.0 20.9 0.00 0.00 0.00 89 1018.7
20260505040925 12 220 8.0 8.0 0.00 0.00 0.00 88 1018.6
20260505040423 12 253 4.8 9.7 0.00 0.00 0.00 88 1018.5
20260505035919 12 250 4.8 4.8 0.00 0.00 0.00 88 1018.5
20260505035415 12 164 6.4 12.9 0.00 0.00 0.00 88 1018.4
20260505034913 12 256 14.5 16.1 0.00 0.00 0.00 89 1018.5
20260505034409 12 290 11.3 14.5 0.00 0.00 0.00 89 1018.4
20260505033906 12 211 3.2 4.8 0.00 0.00 0.00 88 1018.4
20260505033403 12 186 0.0 4.8 0.00 0.00 0.00 88 1018.3
20260505032901 12 212 3.2 4.8 0.00 0.00 0.00 88 1018.1
20260505032357 12 224 8.0 12.9 0.00 0.00 0.00 88 1018.1
20260505031854 12 223 3.2 17.7 0.00 0.00 0.00 88 1018.1
20260505031351 12 264 16.1 17.7 0.00 0.00 0.00 88 1017.9
20260505030849 12 278 8.0 9.7 0.00 0.00 0.00 88 1017.9
20260505030344 12 258 12.9 17.7 0.00 0.00 0.00 88 1017.9
20260505025840 13 262 6.4 12.9 0.00 0.00 0.00 87 1017.9
20260505025338 13 236 4.8 11.3 0.00 0.00 0.00 88 1018.1
20260505024836 13 249 9.7 12.9 0.00 0.00 0.00 88 1018.0
20260505024333 13 269 12.9 16.1 0.00 0.00 0.00 89 1018.1
20260505023830 13 259 12.9 16.1 0.00 0.00 0.00 89 1018.1
20260505023327 13 235 9.7 12.9 0.00 0.00 0.00 88 1017.9
20260505022824 13 268 16.1 17.7 0.00 0.00 0.00 88 1017.9
20260505022321 13 273 17.7 20.9 0.00 0.00 0.00 89 1017.8
20260505021819 13 242 14.5 20.9 0.00 0.00 0.00 88 1017.7
20260505021315 13 252 11.3 20.9 0.00 0.00 0.00 88 1018.0
20260505020811 13 282 12.9 16.1 0.00 0.00 0.00 88 1017.8
20260505020307 13 235 6.4 16.1 0.00 0.00 0.00 86 1017.7
20260505015804 13 270 16.1 20.9 0.00 0.00 0.00 87 1017.8
20260505015301 13 257 16.1 17.7 0.00 0.00 0.00 87 1018.0
20260505014758 13 298 11.3 17.7 0.00 0.00 0.00 86 1017.9
20260505014255 13 263 14.5 17.7 0.00 0.00 0.00 86 1017.8
20260505013751 13 229 14.5 20.9 0.00 0.00 0.00 86 1017.8
20260505013249 13 244 16.1 20.9 0.00 0.00 0.00 85 1017.8
20260505012747 13 262 14.5 17.7 0.00 0.00 0.00 84 1017.9
20260505012244 13 280 14.5 20.9 0.00 0.00 0.00 85 1018.1
20260505011739 13 252 16.1 20.9 0.00 0.00 0.00 83 1018.0
20260505011237 13 248 16.1 22.5 0.00 0.00 0.00 84 1017.8
20260505010732 13 266 14.5 22.5 0.00 0.00 0.00 84 1018.3
20260505010229 13 265 17.7 24.1 0.00 0.00 0.00 85 1018.1
20260505005726 13 260 12.9 20.9 0.00 0.00 0.00 86 1018.0
20260505005223 13 266 16.1 22.5 0.00 0.00 0.00 84 1018.1
20260505004720 13 262 14.5 17.7 0.00 0.00 0.00 84 1018.4
20260505004216 14 249 20.9 24.1 0.00 0.00 0.00 84 1018.3
20260505003713 14 261 14.5 17.7 0.00 0.00 0.00 83 1018.5
20260505003211 14 245 20.9 25.7 0.00 0.00 0.00 83 1018.4
20260505002707 14 260 17.7 24.1 0.00 0.00 0.00 83 1018.3
20260505002205 15 266 17.7 25.7 0.00 0.00 0.00 84 1018.5
20260505001702 15 274 19.3 24.1 0.00 0.00 0.00 83 1018.2
20260505001159 15 277 17.7 22.5 0.00 0.00 0.00 84 1018.4
20260505000656 15 249 16.1 24.1 0.00 0.00 0.00 82 1018.2
20260505000154 15 275 16.1 24.1 0.00 0.00 0.00 81 1018.3
20260504235650 15 264 19.3 24.1 0.00 0.00 0.00 81 1018.0
20260504235147 15 302 19.3 24.1 0.00 0.00 0.00 82 1018.2
20260504234644 15 254 11.3 25.7 0.00 0.00 0.00 82 1018.1
20260504234142 15 269 14.5 17.7 0.00 0.00 0.00 82 1018.2
20260504233637 15 240 14.5 22.5 0.00 0.00 0.00 83 1018.2
20260504233133 15 264 12.9 24.1 0.00 0.00 0.00 82 1018.1
20260504232631 15 262 12.9 14.5 0.00 0.00 0.00 82 1018.0
20260504232128 15 222 12.9 24.1 0.00 0.00 0.00 83 1018.2
20260504231624 15 265 17.7 20.9 0.00 0.00 0.00 83 1018.3
20260504231115 15 242 17.7 22.5 0.00 0.00 0.00 82 1018.3
20260504230611 15 248 12.9 20.9 0.00 0.00 0.00 83 1018.2
20260504230110 15 252 12.9 25.7 0.00 0.00 0.00 82 1018.2
20260504225608 15 267 14.5 24.1 0.00 0.00 0.00 83 1018.3
20260504225104 15 254 16.1 22.5 0.00 0.00 0.00 84 1018.3
20260504224601 15 267 16.1 22.5 0.00 0.00 0.00 84 1018.3
20260504224058 15 267 20.9 25.7 0.00 0.00 0.00 84 1018.4
20260504223555 15 265 19.3 24.1 0.00 0.00 0.00 82 1018.5
20260504223050 15 258 14.5 24.1 0.00 0.00 0.00 82 1018.6
20260504222548 15 260 14.5 20.9 0.00 0.00 0.00 83 1018.5
20260504222045 15 281 17.7 20.9 0.00 0.00 0.00 84 1018.7
20260504221542 15 269 20.9 24.1 0.00 0.00 0.00 83 1018.7
20260504221039 15 268 12.9 22.5 0.00 0.00 0.00 84 1018.5
20260504220535 15 249 14.5 20.9 0.00 0.00 0.00 84 1018.7
20260504220032 15 281 16.1 20.9 0.00 0.00 0.00 84 1018.7
20260504215529 15 282 17.7 24.1 0.00 0.00 0.00 84 1018.7
20260504215026 15 274 17.7 20.9 0.00 0.00 0.00 84 1018.6
20260504214522 15 286 14.5 20.9 0.00 0.00 0.00 83 1018.6
20260504214019 15 282 17.7 22.5 0.00 0.00 0.00 84 1018.9
20260504213515 15 278 17.7 22.5 0.00 0.00 0.00 84 1018.9
20260504213013 15 265 17.7 24.1 0.00 0.00 0.00 83 1018.7
20260504212508 15 273 22.5 27.4 0.00 0.00 0.00 84 1018.7
20260504212006 15 263 14.5 25.7 0.00 0.00 0.00 84 1018.8
20260504211503 15 262 19.3 22.5 0.00 0.00 0.00 84 1018.9
20260504211000 15 268 19.3 22.5 0.00 0.00 0.00 84 1018.8
20260504210456 15 253 17.7 22.5 0.00 0.00 0.00 83 1018.9
20260504205953 14 264 17.7 20.9 0.00 0.00 0.00 84 1018.8
20260504205451 14 223 19.3 22.5 0.00 0.00 0.00 85 1018.9
20260504204949 14 262 17.7 20.9 0.00 0.00 0.00 86 1019.0
20260504204447 15 250 16.1 20.9 0.00 0.00 0.00 85 1019.0
20260504203945 14 274 17.7 20.9 0.00 0.00 0.00 84 1019.0
20260504203443 14 284 17.7 17.7 0.00 0.00 0.00 86 1019.0
20260504202939 14 265 17.7 22.5 0.00 0.00 0.00 85 1019.0
20260504202436 14 252 17.7 20.9 0.00 0.00 0.00 85 1019.1
20260504201932 14 269 16.1 17.7 0.00 0.00 0.00 85 1019.0
20260504201430 14 279 16.1 20.9 0.00 0.00 0.00 85 1018.8
20260504200927 14 286 16.1 17.7 0.00 0.00 0.00 85 1018.9
20260504200424 14 261 17.7 22.5 0.00 0.00 0.00 86 1018.9
20260504195921 14 254 12.9 17.7 0.00 0.00 0.00 86 1018.8
20260504195416 15 258 16.1 22.5 0.00 0.00 0.00 85 1018.9
20260504194913 15 244 9.7 17.7 0.00 0.00 0.00 84 1018.7
20260504194409 15 253 11.3 14.5 0.00 0.00 0.00 83 1018.8
20260504193905 15 239 12.9 17.7 0.00 0.00 0.00 85 1018.7
20260504193403 15 251 12.9 14.5 0.00 0.00 0.00 84 1018.7
20260504192901 14 258 11.3 16.1 0.00 0.00 0.00 85 1018.8
20260504192358 14 264 12.9 16.1 0.00 0.00 0.00 84 1018.6
20260504191857 15 257 14.5 17.7 0.00 0.00 0.00 84 1018.7
20260504191354 15 251 11.3 14.5 0.00 0.00 0.00 83 1018.6
20260504190849 14 265 14.5 17.7 0.00 0.00 0.00 83 1018.8
20260504190346 14 281 11.3 17.7 0.00 0.00 0.00 83 1018.6
20260504185843 14 267 12.9 16.1 0.00 0.00 0.00 83 1018.7
20260504185339 14 272 16.1 20.9 0.00 0.00 0.00 84 1018.6
20260504184835 14 270 12.9 16.1 0.00 0.00 0.00 84 1018.7
20260504184332 14 278 16.1 20.9 0.00 0.00 0.00 84 1018.9
20260504183827 14 267 19.3 20.9 0.00 0.00 0.00 86 1018.7
20260504183325 14 283 11.3 14.5 0.00 0.00 0.00 86 1018.8
20260504182822 13 270 12.9 14.5 0.00 0.00 0.00 86 1018.6
20260504182320 14 261 9.7 12.9 0.00 0.00 0.00 86 1018.9
20260504181817 14 246 11.3 16.1 0.00 0.00 0.00 86 1018.9
20260504181314 13 278 12.9 14.5 0.00 0.00 0.00 86 1018.7
20260504180813 13 263 9.7 14.5 0.00 0.00 0.00 86 1018.7
20260504180311 13 274 12.9 14.5 0.00 0.00 0.00 87 1018.7
20260504175809 13 268 11.3 16.1 0.00 0.00 0.00 87 1018.7
20260504175305 13 260 14.5 16.1 0.00 0.00 0.00 87 1018.6
20260504174804 13 267 14.5 16.1 0.00 0.00 0.00 87 1018.5
20260504174301 13 245 11.3 16.1 0.00 0.00 0.00 87 1018.4
20260504173757 13 259 11.3 12.9 0.00 0.00 0.00 86 1018.6
20260504173254 14 261 9.7 14.5 0.00 0.00 0.00 86 1018.5
20260504172751 14 268 9.7 11.3 0.00 0.00 0.00 84 1018.5
20260504172247 14 209 1.6 9.7 0.00 0.00 0.00 83 1018.6
20260504171743 14 248 4.8 8.0 0.00 0.00 0.00 85 1018.6
20260504171241 14 280 3.2 8.0 0.00 0.00 0.00 84 1018.4
20260504170738 14 245 0.0 4.8 0.00 0.00 0.00 85 1018.5
20260504170235 13 263 6.4 8.0 0.00 0.00 0.00 85 1018.4
20260504160153 12 266 8.0 12.9 0.00 0.00 0.00 91 1018.4
20260504151121 12 246 9.7 11.3 0.00 0.00 0.00 91 1018.1
20260504150619 13 286 11.3 14.5 0.00 0.00 0.00 90 1018.1
20260504150115 13 269 6.4 9.7 0.00 0.00 0.00 89 1018.0